Weather History for Sturgis, MI

Change the Weather History Date:

Monday, February 18, 2013

  Actual Average (KHAI) Record (KHAI)
Temperature  
Mean Temperature 36 °F -  
Max Temperature 50 °F 36 °F 62 °F (1961)
Min Temperature 21 °F 19 °F -10 °F (1978)
Degree Days  
Heating Degree Days 30    
Moisture  
Dew Point 25 °F    
Average Humidity 66    
Maximum Humidity 87    
Minimum Humidity 52    
Precipitation  
Precipitation 0.00 in - - ()
Sea Level Pressure  
Sea Level Pressure 29.83 in    
Wind  
Wind Speed 12 mph (South)    
Max Wind Speed 28 mph    
Max Gust Speed 37 mph    
Visibility 10 miles    
Events Rain    
Averages and records for this station are not official NWS values.
T = Trace of Precipitation, MM = Missing Value Source: NWS Daily Summary

Daily Weather History Graph

Daily Weather History Graph

Search for Another Location

Airport:

Trip Planner

Search our weather history database for the weather conditions in past years. The results will help you decide how hot, cold, wet, or windy it might be!

Date:

Astronomy

Feb. 18, 2013 Rise Set
Actual Time 7:32 AM EST 6:19 PM EST
Civil Twilight 7:04 AM EST 6:47 PM EST
Nautical Twilight 6:32 AM EST 7:19 PM EST
Astronomical Twilight 5:59 AM EST 7:52 PM EST
Moon 12:01 PM EST (2/18) 2:14 AM EST (2/18)
Length of Visible Light 11h 42m
Length of Day
10h 46m
First Quarter, 58% of the Moon is Illuminated
Feb 18
First Quarter
Feb 25
Full
Mar 4
Last Quarter
Mar 11
New
Mar 19
First Quarter

Hourly Weather History & Observations

Time (EST) Temp. Windchill Dew Point Humidity Pressure Visibility Wind Dir Wind Speed Gust Speed Precip Events Conditions
12:15 AM 21.2 °F 12.6 °F 12.2 °F 68% 30.12 in 10.0 mi SSE 6.9 mph - N/A   Clear
12:35 AM 21.2 °F 12.6 °F 12.2 °F 68% 30.12 in 10.0 mi SSE 6.9 mph - N/A   Clear
1:15 AM 21.2 °F 10.1 °F 12.2 °F 68% 30.11 in 10.0 mi SSE 10.4 mph - N/A   Clear
1:35 AM 21.2 °F 11.7 °F 12.2 °F 68% 30.11 in 10.0 mi SSE 8.1 mph - N/A   Clear
1:54 AM 21.2 °F 10.9 °F 12.2 °F 68% 30.10 in 10.0 mi SSE 9.2 mph - N/A   Clear
2:15 AM 21.2 °F 10.1 °F 12.2 °F 68% 30.10 in 10.0 mi SSE 10.4 mph - N/A   Clear
2:35 AM 21.2 °F 10.9 °F 10.4 °F 63% 30.10 in 10.0 mi SSE 9.2 mph - N/A   Clear
2:54 AM 21.2 °F 10.9 °F 10.4 °F 63% 30.08 in 10.0 mi SSE 9.2 mph - N/A   Clear
3:14 AM 21.2 °F 10.9 °F 12.2 °F 68% 30.07 in 10.0 mi SSE 9.2 mph - N/A   Scattered Clouds
3:35 AM 23.0 °F 13.1 °F 12.2 °F 63% 30.07 in 10.0 mi SSE 9.2 mph - N/A   Mostly Cloudy
3:55 AM 23.0 °F 13.9 °F 12.2 °F 63% 30.05 in 10.0 mi SE 8.1 mph - N/A   Mostly Cloudy
4:14 AM 23.0 °F 13.1 °F 12.2 °F 63% 30.04 in 10.0 mi SSE 9.2 mph - N/A   Mostly Cloudy
4:35 AM 24.8 °F 14.6 °F 12.2 °F 59% 30.03 in 10.0 mi SSE 10.4 mph - N/A   Mostly Cloudy
4:55 AM 24.8 °F 14.6 °F 12.2 °F 59% 30.03 in 10.0 mi SSE 10.4 mph 17.3 mph N/A   Scattered Clouds
5:14 AM 24.8 °F 13.4 °F 12.2 °F 59% 30.01 in 10.0 mi SSE 12.7 mph - N/A   Clear
5:35 AM 24.8 °F 14.0 °F 12.2 °F 59% 30.00 in 10.0 mi SSE 11.5 mph - N/A   Clear
5:55 AM 24.8 °F 12.9 °F 12.2 °F 59% 29.99 in 10.0 mi SSE 13.8 mph 18.4 mph N/A   Clear
6:15 AM 24.8 °F 14.6 °F 12.2 °F 59% 29.98 in 10.0 mi SSE 10.4 mph - N/A   Clear
6:34 AM 24.8 °F 13.4 °F 12.2 °F 59% 29.96 in 10.0 mi SSE 12.7 mph - N/A   Clear
6:55 AM 24.8 °F 13.4 °F 12.2 °F 59% 29.95 in 10.0 mi SSE 12.7 mph - N/A   Clear
7:15 AM 24.8 °F 12.9 °F 12.2 °F 59% 29.93 in 10.0 mi SE 13.8 mph 18.4 mph N/A   Clear
7:34 AM 24.8 °F 14.6 °F 14.0 °F 64% 29.93 in 10.0 mi SSE 10.4 mph - N/A   Clear
7:55 AM 24.8 °F 11.9 °F 14.0 °F 64% 29.93 in 10.0 mi SSE 16.1 mph - N/A   Clear
8:15 AM 26.6 °F 13.4 °F 14.0 °F 59% 29.92 in 10.0 mi South 18.4 mph 24.2 mph N/A   Clear
8:34 AM 26.6 °F 13.8 °F 15.8 °F 64% 29.92 in 10.0 mi SSE 17.3 mph 23.0 mph N/A   Clear
9:15 AM 28.4 °F 17.0 °F 15.8 °F 59% 29.91 in 10.0 mi South 15.0 mph 20.7 mph N/A   Clear
9:35 AM 28.4 °F 17.0 °F 15.8 °F 59% 29.89 in 10.0 mi South 15.0 mph 23.0 mph N/A   Clear
9:55 AM 30.2 °F 18.9 °F 17.6 °F 60% 29.89 in 10.0 mi South 16.1 mph 20.7 mph N/A   Clear
10:14 AM 32.0 °F 21.2 °F 17.6 °F 55% 29.88 in 10.0 mi South 16.1 mph 19.6 mph N/A   Clear
10:35 AM 33.8 °F 24.3 °F 19.4 °F 56% 29.87 in 10.0 mi South 13.8 mph 21.9 mph N/A   Clear
10:54 AM 37.4 °F 28.2 °F 21.2 °F 52% 29.87 in 10.0 mi South 16.1 mph - N/A   Clear
11:15 AM 37.4 °F 28.2 °F 23.0 °F 56% 29.86 in 10.0 mi South 16.1 mph 24.2 mph N/A   Clear
11:35 AM 39.2 °F 30.8 °F 24.8 °F 56% 29.85 in 10.0 mi South 15.0 mph 23.0 mph N/A   Clear
11:54 AM 39.2 °F 30.8 °F 24.8 °F 56% 29.84 in 10.0 mi South 15.0 mph 20.7 mph N/A   Clear
12:15 PM 42.8 °F 34.8 °F 26.6 °F 53% 29.83 in 10.0 mi South 17.3 mph 20.7 mph N/A   Clear
12:35 PM 42.8 °F 34.8 °F 26.6 °F 53% 29.82 in 10.0 mi South 17.3 mph 20.7 mph N/A   Clear
12:55 PM 44.6 °F 38.8 °F 28.4 °F 53% 29.81 in 10.0 mi South 11.5 mph 18.4 mph N/A   Clear
1:15 PM 44.6 °F 38.1 °F 28.4 °F 53% 29.80 in 10.0 mi South 13.8 mph - N/A   Clear
1:34 PM 46.4 °F 40.4 °F 30.2 °F 53% 29.79 in 10.0 mi South 13.8 mph 19.6 mph N/A   Clear
1:55 PM 48.2 °F - 32.0 °F 54% 29.77 in 10.0 mi South 16.1 mph 23.0 mph N/A   Clear
2:14 PM 48.2 °F - 33.8 °F 58% 29.75 in 10.0 mi South 13.8 mph 18.4 mph N/A   Clear
2:34 PM 48.2 °F - 33.8 °F 58% 29.74 in 10.0 mi South 11.5 mph 18.4 mph N/A   Clear
2:55 PM 48.2 °F - 35.6 °F 62% 29.73 in 10.0 mi South 17.3 mph 21.9 mph N/A   Clear
3:14 PM 48.2 °F - 35.6 °F 62% 29.73 in 10.0 mi South 17.3 mph 24.2 mph N/A   Clear
3:35 PM 48.2 °F - 35.6 °F 62% 29.72 in 10.0 mi SSW 15.0 mph 23.0 mph N/A   Scattered Clouds
3:55 PM 50.0 °F - 35.6 °F 58% 29.71 in 10.0 mi SSW 13.8 mph - N/A   Mostly Cloudy
4:14 PM 48.2 °F - 35.6 °F 62% 29.70 in 10.0 mi South 13.8 mph - N/A   Overcast
4:35 PM 48.2 °F - 35.6 °F 62% 29.70 in 10.0 mi South 11.5 mph - N/A   Overcast
4:55 PM 46.4 °F 41.1 °F 37.4 °F 71% 29.70 in 10.0 mi South 11.5 mph 19.6 mph N/A   Light Drizzle
5:14 PM 46.4 °F 40.4 °F 37.4 °F 71% 29.70 in 7.0 mi South 13.8 mph 19.6 mph N/A Rain Rain
5:35 PM 44.6 °F 38.8 °F 39.2 °F 81% 29.69 in 10.0 mi South 11.5 mph - N/A Rain Light Rain
6:14 PM 42.8 °F 37.0 °F 39.2 °F 87% 29.68 in 10.0 mi SSE 10.4 mph - N/A   Drizzle
6:35 PM 42.8 °F 37.0 °F 39.2 °F 87% 29.68 in 10.0 mi South 10.4 mph - N/A   Light Drizzle
6:55 PM 42.8 °F 35.8 °F 39.2 °F 87% 29.66 in 10.0 mi SSE 13.8 mph 19.6 mph N/A   Drizzle
7:14 PM 44.6 °F 38.4 °F 41.0 °F 87% 29.65 in 10.0 mi South 12.7 mph 17.3 mph N/A   Overcast
7:35 PM 44.6 °F 35.9 °F 39.2 °F 81% 29.65 in 10.0 mi SSW 23.0 mph 35.7 mph N/A   Overcast
7:55 PM 46.4 °F 38.3 °F 37.4 °F 71% 29.64 in 10.0 mi SSW 23.0 mph 36.8 mph N/A   Light Drizzle
8:14 PM 46.4 °F 39.0 °F 37.4 °F 71% 29.63 in 10.0 mi South 19.6 mph 25.3 mph N/A   Overcast
8:35 PM 46.4 °F 39.5 °F 37.4 °F 71% 29.61 in 10.0 mi South 17.3 mph 24.2 mph N/A   Overcast
8:54 PM 46.4 °F 39.8 °F 37.4 °F 71% 29.60 in 10.0 mi South 16.1 mph 20.7 mph N/A   Overcast
9:15 PM 44.6 °F 36.6 °F 39.2 °F 81% 29.59 in 10.0 mi South 19.6 mph 25.3 mph N/A   Drizzle
9:35 PM 44.6 °F 37.4 °F 39.2 °F 81% 29.59 in 10.0 mi South 16.1 mph 23.0 mph N/A Rain Rain
9:54 PM 44.6 °F 37.8 °F 39.2 °F 81% 29.58 in 10.0 mi South 15.0 mph 24.2 mph N/A Rain Light Rain
10:15 PM 44.6 °F 36.4 °F 39.2 °F 81% 29.57 in 10.0 mi South 20.7 mph 28.8 mph N/A Rain Light Rain
10:34 PM 44.6 °F 36.1 °F 39.2 °F 81% 29.55 in 10.0 mi South 21.9 mph 29.9 mph N/A Rain Rain
11:15 PM 42.8 °F 34.0 °F 39.2 °F 87% 29.51 in 7.0 mi South 20.7 mph 27.6 mph N/A Rain Light Rain
11:34 PM 42.8 °F 34.3 °F 39.2 °F 87% 29.51 in 10.0 mi South 19.6 mph 28.8 mph N/A Rain Light Rain
11:55 PM 44.6 °F 35.1 °F 39.2 °F 81% 29.50 in 10.0 mi SSW 27.6 mph 32.2 mph N/A   Light Drizzle